Tracking 25656 objects as of 21-May-2022
HD Live streaming from Space Station
objects crossing your sky now

RFTSAT

Track RFTSAT now!
10-day predictions


NORAD ID: 44417
Int'l Code: 2019-022G
Perigee: 450.5 km
Apogee: 465.7 km
Inclination: 51.6 °
Period: 93.6 minutes
Semi major axis: 6829 km
RCS: Unknown
Launch date: April 17, 2019
Source: United States (US)
Launch site: WALLOPS ISLAND (WLPIS)
aabbcc
Your satellite tracking list
Your tracking list is empty




NASA's NSSDC Master Catalog

Two Line Element Set (TLE):
1 44417U 19022G   22141.47977537  .00029948  00000-0  78519-3 0  9998
2 44417  51.6412 240.7769 0011114 324.6392  35.3854 15.38357066156096
Source of the keplerian elements: AFSPC